Location: Eschertshofen
(49.3064°N, 11.5756°E)
Time: 22:00:40
(UTC+00:00)

Cosmos 1536 Rocket - Pass Details

Date: 18 September 2020
Orbit: 606 x 632 km, 82.5° (Epoch: 30 October)

Event Time Altitude Azimuth Distance (km) Brightness Sun altitude
Rises 18:31:19 0° 354° (N) 2,915 7.3 -12.3°
Reaches altitude 10° 18:33:38 10° 1° (N) 2,008 6.4 -12.7°
Maximum altitude 18:37:56 46° 75° (ENE) 842 3.9 -13.4°
Enters shadow 18:41:18 16° 145° (SE) 1,657 5.3 -13.9°
